ETD376 OMAA-VRMM

Flight info

Callsign ETD376
Flight time 3h 59m
Altitude 37000
Route KANIP N318 TOLDA P570 KITAL L894 BOLUR/N0466F350 L894 LELEM LELEM2A
Aircraft A21N/M-SDE2E3FGHIRWXY/LB1

Departure

Time 2026-05-08 11:11
Airport Zayed International Airport (OMAA)

Arrival

Time 2026-05-08 15:10
Airport Velana International Airport (VRMM)
Time Latitude Longitude Altitude Speed Heading
2026-05-08 10:13 24.44985 54.64731 81 ft 1 kts 26°
2026-05-08 10:49 24.44984 54.64730 81 ft 1 kts 26°
2026-05-08 10:50 24.44967 54.64721 86 ft 0 kts 29°
2026-05-08 10:53 24.44955 54.64713 85 ft 4 kts 32°
2026-05-08 10:53 24.44932 54.64696 84 ft 4 kts 40°
2026-05-08 10:54 24.44914 54.64676 85 ft 4 kts 60°
2026-05-08 10:54 24.44908 54.64655 84 ft 4 kts 104°
2026-05-08 10:54 24.44911 54.64645 82 ft 1 kts 114°
2026-05-08 11:01 24.44911 54.64646 81 ft 1 kts 114°
2026-05-08 11:01 24.44905 54.64661 83 ft 3 kts 115°
2026-05-08 11:01 24.44892 54.64690 83 ft 5 kts 116°
2026-05-08 11:02 24.44871 54.64732 85 ft 7 kts 125°
2026-05-08 11:02 24.44794 54.64834 82 ft 10 kts 133°
2026-05-08 11:02 24.44768 54.64905 81 ft 12 kts 61°
2026-05-08 11:03 24.44831 54.64972 84 ft 13 kts 36°
2026-05-08 11:03 24.44906 54.65037 85 ft 15 kts 40°
2026-05-08 11:03 24.44992 54.65105 83 ft 16 kts 36°
2026-05-08 11:03 24.45082 54.65184 81 ft 17 kts 40°
2026-05-08 11:04 24.45145 54.65241 82 ft 11 kts 59°
2026-05-08 11:04 24.45119 54.65317 83 ft 12 kts 124°
2026-05-08 11:04 24.45071 54.65391 85 ft 12 kts 126°
2026-05-08 11:04 24.45015 54.65466 82 ft 13 kts 127°
2026-05-08 11:05 24.44958 54.65545 82 ft 14 kts 129°
2026-05-08 11:05 24.44896 54.65629 87 ft 15 kts 129°
2026-05-08 11:05 24.44830 54.65715 83 ft 15 kts 125°
2026-05-08 11:05 24.44766 54.65811 85 ft 16 kts 128°
2026-05-08 11:06 24.44697 54.65909 85 ft 16 kts 127°
2026-05-08 11:06 24.44624 54.66009 83 ft 17 kts 130°
2026-05-08 11:06 24.44551 54.66115 86 ft 18 kts 126°
2026-05-08 11:06 24.44483 54.66215 86 ft 10 kts 129°
2026-05-08 11:07 24.44438 54.66277 87 ft 11 kts 129°
2026-05-08 11:07 24.44389 54.66349 87 ft 13 kts 129°
2026-05-08 11:07 24.44330 54.66429 86 ft 14 kts 128°
2026-05-08 11:07 24.44265 54.66519 85 ft 16 kts 128°
2026-05-08 11:08 24.44195 54.66616 88 ft 17 kts 128°
2026-05-08 11:08 24.44140 54.66694 87 ft 15 kts 126°
2026-05-08 11:08 24.44134 54.66758 86 ft 9 kts 47°
2026-05-08 11:08 24.44176 54.66803 86 ft 9 kts 44°
2026-05-08 11:09 24.44226 54.66851 86 ft 8 kts 30°
2026-05-08 11:09 24.44280 54.66887 85 ft 10 kts 34°
2026-05-08 11:09 24.44320 54.66905 87 ft 6 kts 341°
2026-05-08 11:09 24.44334 54.66893 85 ft 0 kts 310°
2026-05-08 11:10 24.44335 54.66891 85 ft 2 kts 310°
2026-05-08 11:10 24.44441 54.66743 89 ft 59 kts 306°
2026-05-08 11:10 24.44837 54.66179 84 ft 125 kts 308°
2026-05-08 11:11 24.45488 54.65267 93 ft 174 kts 307°
2026-05-08 11:11 24.46221 54.64244 712 ft 169 kts 307°
2026-05-08 11:11 24.46749 54.63514 1169 ft 168 kts 307°
2026-05-08 11:11 24.47475 54.62481 1740 ft 178 kts 304°
2026-05-08 11:12 24.48263 54.61348 2229 ft 195 kts 307°
2026-05-08 11:12 24.48619 54.60839 2439 ft 202 kts 306°
2026-05-08 11:12 24.49450 54.59664 2850 ft 218 kts 307°
2026-05-08 11:12 24.50396 54.58320 3450 ft 225 kts 307°
2026-05-08 11:13 24.51372 54.56946 4027 ft 234 kts 307°
2026-05-08 11:13 24.52517 54.55645 4699 ft 240 kts 324°
2026-05-08 11:13 24.53863 54.55039 5264 ft 247 kts 350°
2026-05-08 11:13 24.54923 54.55050 5650 ft 253 kts
2026-05-08 11:14 24.56321 54.55700 6232 ft 260 kts 31°
2026-05-08 11:14 24.57700 54.57059 6674 ft 277 kts 53°
2026-05-08 11:14 24.58430 54.59062 7085 ft 291 kts 83°
2026-05-08 11:14 24.58194 54.61247 7656 ft 296 kts 112°
2026-05-08 11:15 24.57252 54.63263 8345 ft 297 kts 122°
2026-05-08 11:15 24.56192 54.65230 9082 ft 300 kts 122°
2026-05-08 11:15 24.55171 54.67170 9807 ft 302 kts 121°
2026-05-08 11:15 24.54082 54.69286 10253 ft 317 kts 120°
2026-05-08 11:16 24.52989 54.71444 10527 ft 336 kts 121°
2026-05-08 11:16 24.51835 54.73743 10779 ft 353 kts 121°
2026-05-08 11:16 24.50629 54.76159 11185 ft 363 kts 120°
2026-05-08 11:16 24.49403 54.78614 11845 ft 366 kts 120°
2026-05-08 11:17 24.48191 54.81040 12559 ft 366 kts 120°
2026-05-08 11:17 24.46966 54.83497 13319 ft 365 kts 121°
2026-05-08 11:17 24.45743 54.85945 13987 ft 366 kts 121°
2026-05-08 11:17 24.44514 54.88404 14526 ft 369 kts 121°
2026-05-08 11:18 24.43268 54.90891 15030 ft 374 kts 121°
2026-05-08 11:18 24.42007 54.93408 15530 ft 378 kts 120°
2026-05-08 11:18 24.40746 54.95926 16006 ft 382 kts 120°
2026-05-08 11:18 24.39456 54.98505 16474 ft 387 kts 120°
2026-05-08 11:19 24.38153 55.01106 16943 ft 391 kts 120°
2026-05-08 11:19 24.36827 55.03746 17415 ft 395 kts 120°
2026-05-08 11:19 24.35500 55.06396 17901 ft 398 kts 120°
2026-05-08 11:19 24.34177 55.09042 18312 ft 402 kts 120°
2026-05-08 11:20 24.32823 55.11744 18710 ft 406 kts 120°
2026-05-08 11:20 24.31455 55.14470 19117 ft 409 kts 120°
2026-05-08 11:20 24.30075 55.17220 19532 ft 412 kts 121°
2026-05-08 11:20 24.28684 55.19983 19931 ft 416 kts 121°
2026-05-08 11:21 24.27278 55.22777 20335 ft 419 kts 121°
2026-05-08 11:21 24.26342 55.24636 20607 ft 422 kts 121°
2026-05-08 11:21 24.24919 55.27457 21018 ft 425 kts 121°
2026-05-08 11:21 24.23481 55.30318 21434 ft 429 kts 121°
2026-05-08 11:22 24.22038 55.33191 21863 ft 432 kts 121°
2026-05-08 11:22 24.20580 55.36085 22287 ft 435 kts 121°
2026-05-08 11:22 24.19108 55.38994 22700 ft 439 kts 121°
2026-05-08 11:22 24.17624 55.41935 23094 ft 442 kts 121°
2026-05-08 11:23 24.16144 55.44860 23448 ft 445 kts 121°
2026-05-08 11:23 24.14639 55.47839 23772 ft 448 kts 121°
2026-05-08 11:23 24.13124 55.50834 24087 ft 450 kts 121°
2026-05-08 11:23 24.11600 55.53845 24372 ft 453 kts 121°
2026-05-08 11:24 24.10051 55.56869 24677 ft 456 kts 121°
2026-05-08 11:24 24.08498 55.59911 24975 ft 459 kts 121°
2026-05-08 11:24 24.06957 55.62943 25270 ft 462 kts 121°
2026-05-08 11:24 24.05412 55.66085 25584 ft 464 kts 120°
2026-05-08 11:25 24.03933 55.69189 25880 ft 467 kts 120°
2026-05-08 11:25 24.02428 55.72354 26169 ft 470 kts 120°
2026-05-08 11:25 24.00921 55.75548 26472 ft 472 kts 120°
2026-05-08 11:25 24.00199 55.77068 26607 ft 473 kts 120°
2026-05-08 11:26 23.98816 55.79984 26876 ft 476 kts 120°
2026-05-08 11:26 23.97296 55.83184 27135 ft 480 kts 120°
2026-05-08 11:26 23.95748 55.86430 27410 ft 482 kts 120°
2026-05-08 11:26 23.94194 55.89689 27693 ft 484 kts 120°
2026-05-08 11:27 23.92630 55.92970 27959 ft 486 kts 120°
2026-05-08 11:27 23.91061 55.96253 28247 ft 488 kts 120°
2026-05-08 11:27 23.89481 55.99550 28597 ft 488 kts 120°
2026-05-08 11:27 23.87927 56.02788 28965 ft 487 kts 120°
2026-05-08 11:28 23.86351 56.06071 29334 ft 487 kts 120°
2026-05-08 11:28 23.84778 56.09348 29707 ft 486 kts 120°
2026-05-08 11:28 23.83200 56.12637 30057 ft 485 kts 120°
2026-05-08 11:28 23.81654 56.15859 30345 ft 485 kts 120°
2026-05-08 11:29 23.80090 56.19116 30687 ft 483 kts 120°
2026-05-08 11:29 23.78530 56.22363 31034 ft 482 kts 120°
2026-05-08 11:29 23.76974 56.25602 31383 ft 480 kts 120°
2026-05-08 11:29 23.75424 56.28832 31724 ft 479 kts 120°
2026-05-08 11:30 23.73879 56.32045 32053 ft 478 kts 120°
2026-05-08 11:30 23.72329 56.35261 32351 ft 477 kts 120°
2026-05-08 11:30 23.70801 56.38431 32652 ft 476 kts 120°
2026-05-08 11:30 23.69251 56.41632 32923 ft 475 kts 120°
2026-05-08 11:31 23.67708 56.44818 33259 ft 473 kts 120°
2026-05-08 11:31 23.66176 56.47987 33584 ft 471 kts 120°
2026-05-08 11:31 23.64660 56.51123 33853 ft 470 kts 120°
2026-05-08 11:31 23.63125 56.54286 34073 ft 470 kts 120°
2026-05-08 11:32 23.61602 56.57430 34276 ft 469 kts 120°
2026-05-08 11:32 23.60076 56.60580 34488 ft 469 kts 120°
2026-05-08 11:32 23.58551 56.63729 34668 ft 468 kts 120°
2026-05-08 11:32 23.57043 56.66834 34825 ft 469 kts 120°
2026-05-08 11:33 23.55516 56.69977 34848 ft 468 kts 120°
2026-05-08 11:33 23.52465 56.76264 34826 ft 468 kts 120°
2026-05-08 11:34 23.49433 56.82496 34820 ft 468 kts 120°
2026-05-08 11:34 23.46368 56.88779 34819 ft 469 kts 120°
2026-05-08 11:35 23.43306 56.95057 34829 ft 468 kts 120°
2026-05-08 11:35 23.40247 57.01317 34829 ft 468 kts 120°
2026-05-08 11:36 23.37204 57.07610 34825 ft 469 kts 118°
2026-05-08 11:36 23.34328 57.13958 34832 ft 472 kts 118°
2026-05-08 11:37 23.31427 57.20363 34821 ft 470 kts 118°
2026-05-08 11:37 23.28543 57.26727 34842 ft 470 kts 118°
2026-05-08 11:38 23.25642 57.33110 34832 ft 470 kts 118°
2026-05-08 11:38 23.22735 57.39496 34822 ft 472 kts 119°
2026-05-08 11:39 23.19832 57.45871 34841 ft 471 kts 118°
2026-05-08 11:39 23.16909 57.52280 34829 ft 472 kts 118°
2026-05-08 11:40 23.14005 57.58635 34834 ft 469 kts 118°
2026-05-08 11:40 23.11103 57.64987 34820 ft 468 kts 118°
2026-05-08 11:41 23.08207 57.71310 34812 ft 469 kts 118°
2026-05-08 11:41 23.05295 57.77667 34809 ft 469 kts 118°
2026-05-08 11:42 23.02404 57.83971 34794 ft 469 kts 118°
2026-05-08 11:42 22.99490 57.90309 34787 ft 469 kts 118°
2026-05-08 11:43 22.96560 57.96667 34779 ft 472 kts 118°
2026-05-08 11:43 22.93628 58.03019 34778 ft 469 kts 118°
2026-05-08 11:44 22.90724 58.09318 34763 ft 469 kts 118°
2026-05-08 11:44 22.87794 58.15650 34765 ft 469 kts 118°
2026-05-08 11:45 22.84863 58.21984 34756 ft 469 kts 118°
2026-05-08 11:45 22.81916 58.28339 34752 ft 471 kts 119°
2026-05-08 11:46 22.78980 58.34659 34757 ft 471 kts 119°
2026-05-08 11:46 22.76053 58.40952 34746 ft 469 kts 118°
2026-05-08 11:47 22.73117 58.47269 34740 ft 469 kts 118°
2026-05-08 11:47 22.70177 58.53579 34736 ft 469 kts 118°
2026-05-08 11:48 22.66874 58.59635 34735 ft 466 kts 131°
2026-05-08 11:48 22.64584 58.62097 34740 ft 463 kts 143°
2026-05-08 11:48 22.61959 58.64033 34744 ft 461 kts 150°
2026-05-08 11:49 22.56439 58.67597 34734 ft 461 kts 151°
2026-05-08 11:49 22.50942 58.71185 34744 ft 460 kts 150°
2026-05-08 11:50 22.45496 58.74766 34743 ft 459 kts 150°
2026-05-08 11:50 22.40018 58.78360 34747 ft 459 kts 151°
2026-05-08 11:51 22.34586 58.81933 34748 ft 459 kts 151°
2026-05-08 11:51 22.29108 58.85525 34748 ft 459 kts 150°
2026-05-08 11:52 22.23675 58.89092 34751 ft 459 kts 150°
2026-05-08 11:52 22.18198 58.92688 34740 ft 459 kts 150°
2026-05-08 11:53 22.12770 58.96250 34743 ft 459 kts 150°
2026-05-08 11:53 22.07292 58.99833 34744 ft 459 kts 151°
2026-05-08 11:54 22.01855 59.03383 34739 ft 459 kts 150°
2026-05-08 11:54 21.96367 59.06970 34739 ft 460 kts 150°
2026-05-08 11:55 21.90879 59.10547 34735 ft 460 kts 150°
2026-05-08 11:55 21.85441 59.14094 34736 ft 460 kts 150°
2026-05-08 11:56 21.79960 59.17667 34724 ft 459 kts 150°
2026-05-08 11:56 21.74492 59.21229 34729 ft 459 kts 151°
2026-05-08 11:57 21.69051 59.24768 34734 ft 459 kts 151°
2026-05-08 11:57 21.63580 59.28319 34723 ft 459 kts 150°
2026-05-08 11:58 21.58131 59.31856 34719 ft 459 kts 150°
2026-05-08 11:58 21.52656 59.35413 34724 ft 459 kts 150°
2026-05-08 11:59 21.44432 59.40742 34719 ft 459 kts 150°
2026-05-08 11:59 21.38986 59.44266 34724 ft 459 kts 151°
2026-05-08 12:00 21.33520 59.47804 34727 ft 458 kts 151°
2026-05-08 12:00 21.28068 59.51326 34732 ft 459 kts 151°
2026-05-08 12:01 21.22599 59.54852 34732 ft 459 kts 150°
2026-05-08 12:01 21.17115 59.58391 34734 ft 459 kts 150°
2026-05-08 12:02 21.11633 59.61924 34741 ft 458 kts 151°
2026-05-08 12:02 21.06192 59.65428 34743 ft 459 kts 150°
2026-05-08 12:03 21.00722 59.68946 34750 ft 458 kts 150°
2026-05-08 12:03 20.95286 59.72440 34752 ft 458 kts 150°
2026-05-08 12:04 20.89795 59.75962 34757 ft 458 kts 151°
2026-05-08 12:04 20.84328 59.79470 34755 ft 459 kts 150°
2026-05-08 12:05 20.78864 59.82970 34762 ft 459 kts 151°
2026-05-08 12:05 20.73370 59.86487 34761 ft 459 kts 150°
2026-05-08 12:06 20.67907 59.89981 34765 ft 458 kts 151°
2026-05-08 12:06 20.62431 59.93483 34766 ft 458 kts 151°
2026-05-08 12:07 20.56982 59.96959 34770 ft 459 kts 150°
2026-05-08 12:07 20.51475 60.00473 34769 ft 460 kts 150°
2026-05-08 12:08 20.45999 60.03967 34776 ft 460 kts 150°
2026-05-08 12:08 20.40495 60.07473 34779 ft 460 kts 151°
2026-05-08 12:09 20.35024 60.10947 34781 ft 460 kts 150°
2026-05-08 12:09 20.29522 60.14445 34786 ft 460 kts 151°
2026-05-08 12:10 20.24043 60.17923 34784 ft 460 kts 150°
2026-05-08 12:10 20.18519 60.21428 34784 ft 461 kts 150°
2026-05-08 12:11 20.13012 60.24923 34784 ft 461 kts 150°
2026-05-08 12:11 20.07535 60.28397 34788 ft 461 kts 150°
2026-05-08 12:12 20.02363 60.32459 34787 ft 464 kts 139°
2026-05-08 12:12 19.98371 60.36279 34790 ft 463 kts 139°
2026-05-08 12:13 19.92792 60.41615 34793 ft 463 kts 139°
2026-05-08 12:13 19.88789 60.45417 34794 ft 463 kts 139°
2026-05-08 12:14 19.83201 60.50723 34796 ft 463 kts 139°
2026-05-08 12:14 19.79204 60.54519 34795 ft 463 kts 139°
2026-05-08 12:15 19.74375 60.59092 34799 ft 463 kts 139°
2026-05-08 12:15 19.69582 60.63633 34799 ft 464 kts 139°
2026-05-08 12:16 19.64755 60.68205 34798 ft 464 kts 139°
2026-05-08 12:16 19.59923 60.72759 34799 ft 464 kts 139°
2026-05-08 12:17 19.55131 60.77288 34805 ft 464 kts 139°
2026-05-08 12:17 19.50305 60.81837 34805 ft 464 kts 139°
2026-05-08 12:18 19.45472 60.86401 34805 ft 464 kts 139°
2026-05-08 12:18 19.40669 60.90928 34805 ft 464 kts 139°
2026-05-08 12:19 19.35839 60.95481 34802 ft 464 kts 139°
2026-05-08 12:19 19.31008 61.00026 34803 ft 464 kts 139°
2026-05-08 12:20 19.26177 61.04569 34802 ft 464 kts 139°
2026-05-08 12:20 19.21354 61.09102 34802 ft 463 kts 139°
2026-05-08 12:21 19.16545 61.13613 34805 ft 464 kts 139°
2026-05-08 12:21 19.11701 61.18156 34806 ft 464 kts 139°
2026-05-08 12:22 19.06892 61.22660 34808 ft 463 kts 139°
2026-05-08 12:22 19.02050 61.27196 34807 ft 464 kts 139°
2026-05-08 12:23 18.97240 61.31696 34812 ft 464 kts 139°
2026-05-08 12:23 18.92404 61.36222 34810 ft 464 kts 139°
2026-05-08 12:24 18.87554 61.40753 34810 ft 463 kts 139°
2026-05-08 12:24 18.82733 61.45249 34812 ft 464 kts 139°
2026-05-08 12:25 18.77907 61.49745 34812 ft 464 kts 139°
2026-05-08 12:25 18.73051 61.54271 34815 ft 464 kts 139°
2026-05-08 12:26 18.68226 61.58753 34813 ft 464 kts 139°
2026-05-08 12:26 18.63369 61.63266 34813 ft 464 kts 139°
2026-05-08 12:27 18.58540 61.67739 34814 ft 464 kts 139°
2026-05-08 12:27 18.53694 61.72245 34818 ft 463 kts 139°
2026-05-08 12:28 18.48832 61.76734 34819 ft 465 kts 139°
2026-05-08 12:28 18.43971 61.81246 34820 ft 465 kts 139°
2026-05-08 12:29 18.39152 61.85735 34818 ft 465 kts 139°
2026-05-08 12:29 18.34305 61.90244 34819 ft 465 kts 139°
2026-05-08 12:30 18.29426 61.94726 34821 ft 465 kts 140°
2026-05-08 12:30 18.24586 61.99198 34824 ft 465 kts 139°
2026-05-08 12:31 18.19722 62.03714 34825 ft 465 kts 139°
2026-05-08 12:31 18.14881 62.08192 34825 ft 466 kts 139°
2026-05-08 12:32 18.10010 62.12689 34825 ft 466 kts 140°
2026-05-08 12:32 18.05123 62.17186 34824 ft 466 kts 140°
2026-05-08 12:33 18.00273 62.21638 34830 ft 464 kts 140°
2026-05-08 12:33 17.95362 62.26130 34832 ft 466 kts 139°
2026-05-08 12:34 17.90464 62.30626 34828 ft 467 kts 140°
2026-05-08 12:34 17.85603 62.35111 34829 ft 466 kts 140°
2026-05-08 12:35 17.80727 62.39595 34827 ft 466 kts 139°
2026-05-08 12:35 17.75872 62.44048 34829 ft 467 kts 140°
2026-05-08 12:36 17.70967 62.48548 34830 ft 466 kts 139°
2026-05-08 12:36 17.66078 62.53043 34827 ft 466 kts 140°
2026-05-08 12:37 17.61218 62.57482 34827 ft 467 kts 140°
2026-05-08 12:37 17.56311 62.61991 34829 ft 468 kts 140°
2026-05-08 12:38 17.51427 62.66451 34827 ft 466 kts 140°
2026-05-08 12:38 17.46516 62.70905 34826 ft 465 kts 140°
2026-05-08 12:39 17.41635 62.75351 34829 ft 466 kts 140°
2026-05-08 12:39 17.36739 62.79821 34827 ft 467 kts 140°
2026-05-08 12:40 17.31870 62.84264 34830 ft 466 kts 140°
2026-05-08 12:40 17.26977 62.88716 34834 ft 464 kts 140°
2026-05-08 12:41 17.22076 62.93160 34836 ft 465 kts 140°
2026-05-08 12:41 17.17207 62.97592 34837 ft 466 kts 140°
2026-05-08 12:42 17.12304 63.02049 34836 ft 466 kts 140°
2026-05-08 12:42 17.07426 63.06502 34832 ft 465 kts 140°
2026-05-08 12:43 17.02562 63.10924 34833 ft 466 kts 140°
2026-05-08 12:43 16.97596 63.15308 34836 ft 465 kts 141°
2026-05-08 12:44 16.92632 63.19620 34838 ft 465 kts 141°
2026-05-08 12:44 16.87640 63.23951 34837 ft 465 kts 141°
2026-05-08 12:45 16.82686 63.28246 34836 ft 465 kts 141°
2026-05-08 12:45 16.77702 63.32551 34839 ft 466 kts 141°
2026-05-08 12:46 16.72713 63.36871 34836 ft 465 kts 141°
2026-05-08 12:46 16.67734 63.41192 34835 ft 465 kts 141°
2026-05-08 12:47 16.62760 63.45474 34837 ft 464 kts 141°
2026-05-08 12:47 16.57779 63.49773 34837 ft 464 kts 141°
2026-05-08 12:48 16.52802 63.54080 34837 ft 465 kts 141°
2026-05-08 12:48 16.47821 63.58386 34838 ft 464 kts 141°
2026-05-08 12:49 16.42842 63.62668 34839 ft 464 kts 141°
2026-05-08 12:49 16.37890 63.66935 34840 ft 465 kts 141°
2026-05-08 12:50 16.32906 63.71227 34839 ft 465 kts 141°
2026-05-08 12:50 16.27913 63.75520 34840 ft 464 kts 141°
2026-05-08 12:51 16.20458 63.81933 34841 ft 464 kts 141°
2026-05-08 12:52 16.15467 63.86212 34842 ft 465 kts 141°
2026-05-08 12:52 16.08017 63.92608 34838 ft 464 kts 141°
2026-05-08 12:53 16.03018 63.96892 34840 ft 464 kts 141°
2026-05-08 12:53 15.98069 64.01137 34841 ft 464 kts 141°
2026-05-08 12:54 15.93070 64.05422 34841 ft 464 kts 141°
2026-05-08 12:54 15.88082 64.09691 34840 ft 464 kts 141°
2026-05-08 12:55 15.83128 64.13914 34840 ft 464 kts 142°
2026-05-08 12:55 15.78131 64.18183 34841 ft 464 kts 141°
2026-05-08 12:56 15.73129 64.22449 34842 ft 464 kts 141°
2026-05-08 12:56 15.68159 64.26682 34841 ft 464 kts 142°
2026-05-08 12:57 15.63179 64.30943 34841 ft 464 kts 141°
2026-05-08 12:57 15.58181 64.35207 34841 ft 464 kts 141°
2026-05-08 12:58 15.53221 64.39432 34838 ft 464 kts 142°
2026-05-08 12:58 15.48223 64.43686 34838 ft 464 kts 141°
2026-05-08 12:59 15.43245 64.47907 34837 ft 464 kts 141°
2026-05-08 12:59 15.38248 64.52159 34837 ft 465 kts 141°
2026-05-08 13:00 15.33240 64.56413 34836 ft 465 kts 141°
2026-05-08 13:00 15.28255 64.60658 34836 ft 465 kts 141°
2026-05-08 13:01 15.24090 64.64184 34834 ft 465 kts 141°
2026-05-08 13:01 15.18268 64.69118 34831 ft 464 kts 141°
2026-05-08 13:02 15.14107 64.72652 34832 ft 465 kts 141°
2026-05-08 13:02 15.09090 64.76907 34832 ft 465 kts 142°
2026-05-08 13:03 15.04081 64.81147 34834 ft 464 kts 142°
2026-05-08 13:03 14.99101 64.85357 34835 ft 464 kts 142°
2026-05-08 13:04 14.94098 64.89578 34835 ft 465 kts 142°
2026-05-08 13:04 14.89081 64.93824 34833 ft 465 kts 142°
2026-05-08 13:05 14.84073 64.98043 34840 ft 467 kts 142°
2026-05-08 13:05 14.79037 65.02281 34834 ft 467 kts 142°
2026-05-08 13:06 14.74007 65.06523 34834 ft 465 kts 141°
2026-05-08 13:06 14.69009 65.10754 34834 ft 466 kts 141°
2026-05-08 13:07 14.63963 65.14995 34835 ft 466 kts 142°
2026-05-08 13:07 14.58932 65.19232 34835 ft 466 kts 142°
2026-05-08 13:08 14.53879 65.23479 34835 ft 466 kts 141°
2026-05-08 13:08 14.48870 65.27692 34835 ft 467 kts 142°
2026-05-08 13:09 14.43846 65.31906 34833 ft 467 kts 141°
2026-05-08 13:09 14.38788 65.36150 34835 ft 467 kts 141°
2026-05-08 13:10 14.33744 65.40386 34834 ft 467 kts 141°
2026-05-08 13:10 14.28737 65.44580 34834 ft 466 kts 141°
2026-05-08 13:11 14.23688 65.48813 34833 ft 468 kts 141°
2026-05-08 13:11 14.18608 65.53016 34834 ft 468 kts 141°
2026-05-08 13:12 14.13529 65.57259 34836 ft 467 kts 141°
2026-05-08 13:12 14.08503 65.61468 34837 ft 467 kts 141°
2026-05-08 13:13 14.03473 65.65692 34832 ft 467 kts 141°
2026-05-08 13:13 13.98453 65.69896 34834 ft 466 kts 141°
2026-05-08 13:14 13.93402 65.74124 34835 ft 466 kts 141°
2026-05-08 13:14 13.88370 65.78309 34835 ft 466 kts 141°
2026-05-08 13:15 13.83305 65.82500 34837 ft 465 kts 141°
2026-05-08 13:15 13.78270 65.86699 34837 ft 466 kts 141°
2026-05-08 13:16 13.73229 65.90897 34836 ft 466 kts 141°
2026-05-08 13:16 13.68170 65.95097 34837 ft 466 kts 141°
2026-05-08 13:17 13.63149 65.99266 34837 ft 466 kts 141°
2026-05-08 13:17 13.58123 66.03489 34838 ft 466 kts 141°
2026-05-08 13:18 13.53084 66.07680 34840 ft 467 kts 141°
2026-05-08 13:18 13.48061 66.11865 34841 ft 466 kts 141°
2026-05-08 13:19 13.42991 66.16056 34842 ft 466 kts 141°
2026-05-08 13:19 13.37968 66.20230 34841 ft 466 kts 141°
2026-05-08 13:20 13.32918 66.24403 34841 ft 464 kts 141°
2026-05-08 13:20 13.27886 66.28587 34838 ft 465 kts 141°
2026-05-08 13:21 13.22874 66.32747 34837 ft 465 kts 140°
2026-05-08 13:21 13.17825 66.36926 34838 ft 465 kts 141°
2026-05-08 13:22 13.12767 66.41077 34836 ft 465 kts 141°
2026-05-08 13:22 13.07752 66.45213 34837 ft 464 kts 140°
2026-05-08 13:23 13.02724 66.49399 34838 ft 465 kts 140°
2026-05-08 13:23 12.97673 66.53565 34838 ft 466 kts 140°
2026-05-08 13:24 12.92662 66.57714 34839 ft 465 kts 140°
2026-05-08 13:24 12.87618 66.61877 34837 ft 464 kts 141°
2026-05-08 13:25 12.82580 66.66026 34837 ft 464 kts 141°
2026-05-08 13:25 12.77561 66.70147 34838 ft 464 kts 141°
2026-05-08 13:26 12.72511 66.74304 34839 ft 465 kts 140°
2026-05-08 13:26 12.67463 66.78458 34838 ft 464 kts 140°
2026-05-08 13:27 12.62454 66.82583 34838 ft 464 kts 140°
2026-05-08 13:27 12.57404 66.86737 34838 ft 464 kts 140°
2026-05-08 13:28 12.52359 66.90884 34838 ft 463 kts 140°
2026-05-08 13:28 12.47372 66.94988 34837 ft 462 kts 140°
2026-05-08 13:29 12.42354 66.99120 34835 ft 462 kts 140°
2026-05-08 13:29 12.37338 67.03241 34836 ft 462 kts 140°
2026-05-08 13:30 12.32351 67.07330 34835 ft 462 kts 140°
2026-05-08 13:30 12.27321 67.11452 34833 ft 462 kts 140°
2026-05-08 13:31 12.22324 67.15548 34831 ft 462 kts 140°
2026-05-08 13:31 12.17289 67.19669 34832 ft 461 kts 140°
2026-05-08 13:32 12.12303 67.23751 34833 ft 458 kts 140°
2026-05-08 13:32 12.07326 67.27827 34831 ft 457 kts 140°
2026-05-08 13:33 12.02387 67.31866 34828 ft 457 kts 140°
2026-05-08 13:33 11.97406 67.35935 34829 ft 457 kts 140°
2026-05-08 13:34 11.92465 67.39975 34827 ft 457 kts 140°
2026-05-08 13:34 11.87487 67.44043 34826 ft 457 kts 140°
2026-05-08 13:35 11.82508 67.48107 34826 ft 457 kts 140°
2026-05-08 13:35 11.77568 67.52137 34827 ft 457 kts 140°
2026-05-08 13:36 11.72598 67.56184 34827 ft 456 kts 140°
2026-05-08 13:36 11.67635 67.60223 34826 ft 455 kts 140°
2026-05-08 13:37 11.62686 67.64266 34826 ft 455 kts 140°
2026-05-08 13:37 11.57735 67.68304 34823 ft 455 kts 140°
2026-05-08 13:38 11.52802 67.72315 34822 ft 455 kts 140°
2026-05-08 13:38 11.47848 67.76348 34823 ft 455 kts 140°
2026-05-08 13:39 11.42916 67.80358 34822 ft 455 kts 140°
2026-05-08 13:39 11.37969 67.84395 34823 ft 455 kts 140°
2026-05-08 13:40 11.33005 67.88430 34822 ft 455 kts 140°
2026-05-08 13:40 11.28056 67.92449 34823 ft 455 kts 140°
2026-05-08 13:41 11.23136 67.96445 34820 ft 455 kts 140°
2026-05-08 13:41 11.18177 68.00470 34823 ft 455 kts 140°
2026-05-08 13:42 11.13230 68.04484 34819 ft 454 kts 140°
2026-05-08 13:42 11.08306 68.08475 34819 ft 454 kts 140°
2026-05-08 13:43 11.03347 68.12492 34819 ft 454 kts 140°
2026-05-08 13:43 10.98427 68.16477 34820 ft 454 kts 140°
2026-05-08 13:44 10.93474 68.20488 34816 ft 453 kts 140°
2026-05-08 13:44 10.88539 68.24486 34817 ft 452 kts 140°
2026-05-08 13:45 10.83614 68.28472 34817 ft 452 kts 140°
2026-05-08 13:45 10.78708 68.32441 34817 ft 452 kts 140°
2026-05-08 13:46 10.73804 68.36407 34817 ft 452 kts 140°
2026-05-08 13:46 10.68871 68.40397 34817 ft 452 kts 140°
2026-05-08 13:47 10.64766 68.43710 34817 ft 452 kts 140°
2026-05-08 13:47 10.59033 68.48334 34814 ft 452 kts 140°
2026-05-08 13:48 10.54936 68.51638 34821 ft 452 kts 140°
2026-05-08 13:48 10.50008 68.55612 34821 ft 451 kts 140°
2026-05-08 13:49 10.45085 68.59583 34816 ft 451 kts 140°
2026-05-08 13:49 10.40161 68.63553 34818 ft 451 kts 140°
2026-05-08 13:50 10.35259 68.67500 34818 ft 451 kts 140°
2026-05-08 13:50 10.30337 68.71463 34817 ft 451 kts 140°
2026-05-08 13:51 10.25415 68.75427 34817 ft 451 kts 140°
2026-05-08 13:51 10.20511 68.79377 34818 ft 452 kts 140°
2026-05-08 13:52 10.15588 68.83336 34820 ft 453 kts 140°
2026-05-08 13:52 10.10648 68.87307 34815 ft 452 kts 140°
2026-05-08 13:53 10.05719 68.91271 34817 ft 451 kts 140°
2026-05-08 13:53 10.00825 68.95203 34817 ft 451 kts 140°
2026-05-08 13:54 9.95892 68.99165 34817 ft 451 kts 140°
2026-05-08 13:54 9.90984 69.03105 35022 ft 452 kts 140°
2026-05-08 13:55 9.88519 69.05081 36981 ft 452 kts 142°
2026-05-08 13:55 9.86034 69.07076 37105 ft 456 kts 142°
2026-05-08 13:55 9.81082 69.11049 37812 ft 451 kts 142°
2026-05-08 13:56 9.78623 69.13021 37532 ft 462 kts 142°
2026-05-08 13:56 9.76060 69.15076 35589 ft 467 kts 141°
2026-05-08 13:56 9.73557 69.17082 36208 ft 453 kts 140°
2026-05-08 13:56 9.71110 69.19043 36638 ft 447 kts 140°
2026-05-08 13:57 9.68661 69.21003 36797 ft 447 kts 140°
2026-05-08 13:57 9.63775 69.24911 36821 ft 449 kts 140°
2026-05-08 13:58 9.58882 69.28827 36813 ft 451 kts 140°
2026-05-08 13:58 9.53938 69.32783 36811 ft 454 kts 141°
2026-05-08 13:59 9.48971 69.36752 36810 ft 455 kts 141°
2026-05-08 13:59 9.44002 69.40723 36810 ft 455 kts 141°
2026-05-08 14:00 9.39052 69.44675 36811 ft 455 kts 141°
2026-05-08 14:00 9.34073 69.48651 36808 ft 455 kts 141°
2026-05-08 14:01 9.29137 69.52593 36808 ft 455 kts 141°
2026-05-08 14:01 9.24191 69.56538 36805 ft 448 kts 141°
2026-05-08 14:02 9.19268 69.60462 36809 ft 450 kts 141°
2026-05-08 14:02 9.14362 69.64376 36809 ft 450 kts 141°
2026-05-08 14:03 9.09421 69.68313 36809 ft 450 kts 141°
2026-05-08 14:03 9.04494 69.72239 36806 ft 450 kts 141°
2026-05-08 14:04 8.99594 69.76141 36807 ft 450 kts 141°
2026-05-08 14:04 8.94672 69.80055 36807 ft 450 kts 141°
2026-05-08 14:05 8.89733 69.83985 36806 ft 451 kts 141°
2026-05-08 14:05 8.84845 69.87874 36806 ft 447 kts 141°
2026-05-08 14:06 8.79943 69.91775 36809 ft 448 kts 141°
2026-05-08 14:06 8.75064 69.95658 36806 ft 448 kts 140°
2026-05-08 14:07 8.70147 69.99568 36806 ft 448 kts 141°
2026-05-08 14:07 8.65243 70.03462 36802 ft 448 kts 141°
2026-05-08 14:08 8.60369 70.07333 36803 ft 448 kts 141°
2026-05-08 14:08 8.55457 70.11231 36805 ft 448 kts 140°
2026-05-08 14:09 8.50581 70.15098 36803 ft 447 kts 140°
2026-05-08 14:09 8.45679 70.18985 36802 ft 448 kts 140°
2026-05-08 14:10 8.40783 70.22867 36800 ft 445 kts 140°
2026-05-08 14:10 8.35896 70.26745 36800 ft 446 kts 140°
2026-05-08 14:11 8.31050 70.30590 36799 ft 446 kts 140°
2026-05-08 14:11 8.26163 70.34465 36799 ft 446 kts 140°
2026-05-08 14:12 8.21274 70.38338 36798 ft 446 kts 140°
2026-05-08 14:12 8.16406 70.42195 36800 ft 447 kts 140°
2026-05-08 14:13 8.11530 70.46053 36799 ft 447 kts 140°
2026-05-08 14:13 8.06634 70.49929 36798 ft 446 kts 140°
2026-05-08 14:14 8.01734 70.53806 36798 ft 446 kts 140°
2026-05-08 14:14 7.96856 70.57662 36799 ft 445 kts 140°
2026-05-08 14:15 7.92012 70.61494 36796 ft 445 kts 140°
2026-05-08 14:15 7.87128 70.65351 36797 ft 446 kts 140°
2026-05-08 14:16 7.82212 70.69235 36797 ft 447 kts 140°
2026-05-08 14:16 7.77334 70.73091 36794 ft 447 kts 140°
2026-05-08 14:17 7.72430 70.76963 36796 ft 447 kts 140°
2026-05-08 14:17 7.67524 70.80836 36800 ft 447 kts 140°
2026-05-08 14:18 7.62619 70.84707 36799 ft 447 kts 140°
2026-05-08 14:18 7.57736 70.88560 36797 ft 447 kts 140°
2026-05-08 14:19 7.52825 70.92432 36797 ft 448 kts 140°
2026-05-08 14:19 7.47936 70.96287 36796 ft 447 kts 141°
2026-05-08 14:20 7.43013 71.00162 36796 ft 448 kts 141°
2026-05-08 14:20 7.38130 71.04004 36793 ft 448 kts 141°
2026-05-08 14:21 7.33213 71.07874 36793 ft 448 kts 141°
2026-05-08 14:21 7.28301 71.11736 36793 ft 447 kts 141°
2026-05-08 14:22 7.23421 71.15576 36793 ft 447 kts 141°
2026-05-08 14:22 7.18499 71.19445 36800 ft 448 kts 140°
2026-05-08 14:23 7.13578 71.23312 36792 ft 448 kts 140°
2026-05-08 14:23 7.08688 71.27155 36794 ft 448 kts 140°
2026-05-08 14:24 7.03763 71.31024 36793 ft 448 kts 140°
2026-05-08 14:24 6.98845 71.34884 36793 ft 448 kts 140°
2026-05-08 14:25 6.93933 71.38739 36794 ft 447 kts 140°
2026-05-08 14:25 6.89048 71.42571 36793 ft 448 kts 140°
2026-05-08 14:26 6.84125 71.46433 36795 ft 448 kts 140°
2026-05-08 14:26 6.79219 71.50283 36792 ft 446 kts 140°
2026-05-08 14:27 6.74310 71.54135 36793 ft 447 kts 140°
2026-05-08 14:27 6.69422 71.57965 36789 ft 449 kts 140°
2026-05-08 14:28 6.64475 71.61843 36791 ft 449 kts 140°
2026-05-08 14:28 6.59570 71.65687 36794 ft 449 kts 140°
2026-05-08 14:29 6.54631 71.69557 36793 ft 449 kts 140°
2026-05-08 14:29 6.49717 71.73405 36794 ft 449 kts 140°
2026-05-08 14:30 6.44781 71.77270 36793 ft 449 kts 140°
2026-05-08 14:30 6.39839 71.81139 36790 ft 449 kts 140°
2026-05-08 14:31 6.34930 71.84979 36793 ft 449 kts 140°
2026-05-08 14:31 6.29983 71.88851 36794 ft 449 kts 140°
2026-05-08 14:32 6.22593 71.94631 36788 ft 449 kts 140°
2026-05-08 14:32 6.17672 71.98481 36790 ft 449 kts 140°
2026-05-08 14:33 6.12730 72.02346 36794 ft 450 kts 140°
2026-05-08 14:33 6.07771 72.06223 36793 ft 450 kts 140°
2026-05-08 14:34 6.02848 72.10071 36793 ft 450 kts 140°
2026-05-08 14:34 5.97915 72.13923 36790 ft 450 kts 140°
2026-05-08 14:35 5.92962 72.17789 36791 ft 450 kts 140°
2026-05-08 14:35 5.88014 72.21650 36790 ft 450 kts 140°
2026-05-08 14:36 5.83094 72.25497 36787 ft 450 kts 140°
2026-05-08 14:36 5.78138 72.29366 36790 ft 454 kts 140°
2026-05-08 14:37 5.73128 72.33274 36793 ft 456 kts 140°
2026-05-08 14:37 5.68120 72.37180 36791 ft 456 kts 140°
2026-05-08 14:38 5.63951 72.40431 36785 ft 455 kts 140°
2026-05-08 14:38 5.58941 72.44338 36787 ft 455 kts 140°
2026-05-08 14:39 5.53953 72.48225 36790 ft 455 kts 140°
2026-05-08 14:39 5.48941 72.52132 36790 ft 455 kts 140°
2026-05-08 14:40 5.43956 72.56018 36792 ft 455 kts 140°
2026-05-08 14:40 5.41474 72.57949 36577 ft 446 kts 140°
2026-05-08 14:40 5.39017 72.59862 35859 ft 447 kts 140°
2026-05-08 14:41 5.36553 72.61782 35046 ft 450 kts 140°
2026-05-08 14:41 5.34066 72.63722 34205 ft 454 kts 141°
2026-05-08 14:41 5.31568 72.65667 33373 ft 456 kts 141°
2026-05-08 14:41 5.29058 72.67623 32491 ft 458 kts 141°
2026-05-08 14:42 5.26555 72.69571 31640 ft 463 kts 141°
2026-05-08 14:42 5.24002 72.71558 30905 ft 466 kts 141°
2026-05-08 14:42 5.21439 72.73553 30373 ft 461 kts 141°
2026-05-08 14:42 5.18935 72.75501 30102 ft 448 kts 141°
2026-05-08 14:43 5.16503 72.77392 29891 ft 435 kts 141°
2026-05-08 14:43 5.14147 72.79226 29684 ft 421 kts 141°
2026-05-08 14:43 5.11862 72.81003 29314 ft 412 kts 141°
2026-05-08 14:43 5.09602 72.82762 28316 ft 419 kts 140°
2026-05-08 14:44 5.07267 72.84584 28598 ft 430 kts 142°
2026-05-08 14:44 5.04871 72.86446 26043 ft 441 kts 141°
2026-05-08 14:44 5.02434 72.88339 25119 ft 446 kts 141°
2026-05-08 14:44 4.99977 72.90251 24525 ft 442 kts 142°
2026-05-08 14:45 4.97598 72.92102 24171 ft 435 kts 142°
2026-05-08 14:45 4.95196 72.93969 23990 ft 435 kts 142°
2026-05-08 14:45 4.95062 72.94073 23980 ft 435 kts 142°
2026-05-08 14:45 4.93856 72.95012 23921 ft 436 kts 142°
2026-05-08 14:46 4.93135 72.95572 23874 ft 434 kts 142°
2026-05-08 14:46 4.90754 72.97423 23822 ft 431 kts 141°
2026-05-08 14:46 4.88392 72.99259 23590 ft 423 kts 141°
2026-05-08 14:46 4.86122 73.01021 22608 ft 430 kts 141°
2026-05-08 14:47 4.83696 73.02917 21719 ft 433 kts 141°
2026-05-08 14:47 4.81343 73.04767 21216 ft 426 kts 141°
2026-05-08 14:47 4.79032 73.06587 20972 ft 417 kts 141°
2026-05-08 14:47 4.76975 73.08208 20870 ft 414 kts 141°
2026-05-08 14:48 4.74702 73.09996 20820 ft 412 kts 141°
2026-05-08 14:48 4.72470 73.11750 20810 ft 415 kts 141°
2026-05-08 14:48 4.70201 73.13535 20800 ft 414 kts 141°
2026-05-08 14:48 4.67918 73.15330 20810 ft 415 kts 141°
2026-05-08 14:49 4.65635 73.17124 20806 ft 414 kts 141°
2026-05-08 14:49 4.63389 73.18888 20224 ft 411 kts 141°
2026-05-08 14:49 4.61125 73.20666 19295 ft 417 kts 142°
2026-05-08 14:49 4.58845 73.22456 18470 ft 420 kts 142°
2026-05-08 14:50 4.56539 73.24267 17722 ft 420 kts 142°
2026-05-08 14:50 4.54265 73.26054 17018 ft 417 kts 142°
2026-05-08 14:50 4.51995 73.27838 16351 ft 413 kts 142°
2026-05-08 14:50 4.49756 73.29598 15799 ft 406 kts 142°
2026-05-08 14:51 4.47535 73.31342 15102 ft 404 kts 142°
2026-05-08 14:51 4.45326 73.33077 14482 ft 401 kts 142°
2026-05-08 14:51 4.43131 73.34800 13822 ft 400 kts 142°
2026-05-08 14:51 4.40964 73.36503 13425 ft 390 kts 143°
2026-05-08 14:52 4.38861 73.38153 13160 ft 377 kts 143°
2026-05-08 14:52 4.34375 73.40172 12758 ft 344 kts 179°
2026-05-08 14:52 4.32073 73.39864 12591 ft 326 kts 202°
2026-05-08 14:53 4.30123 73.38826 12406 ft 311 kts 218°
2026-05-08 14:53 4.28557 73.37365 11980 ft 306 kts 233°
2026-05-08 14:53 4.27343 73.35620 11550 ft 304 kts 237°
2026-05-08 14:53 4.25916 73.34081 11126 ft 307 kts 220°
2026-05-08 14:54 4.24061 73.33024 10708 ft 309 kts 202°
2026-05-08 14:54 4.21954 73.32573 10340 ft 310 kts 186°
2026-05-08 14:54 4.19817 73.32550 10143 ft 302 kts 179°
2026-05-08 14:54 4.17777 73.32752 10008 ft 292 kts 173°
2026-05-08 14:55 4.15817 73.33139 9883 ft 282 kts 167°
2026-05-08 14:55 4.13960 73.33685 9707 ft 274 kts 162°
2026-05-08 14:55 4.12205 73.34386 9312 ft 275 kts 156°
2026-05-08 14:55 4.10502 73.35271 8920 ft 276 kts 150°
2026-05-08 14:56 4.08887 73.36318 8560 ft 275 kts 144°
2026-05-08 14:56 4.07438 73.37570 8205 ft 274 kts 136°
2026-05-08 14:56 4.06094 73.38888 7992 ft 273 kts 136°
2026-05-08 14:56 4.04739 73.40222 7943 ft 272 kts 136°
2026-05-08 14:57 4.03273 73.41396 7940 ft 266 kts 155°
2026-05-08 14:57 4.01529 73.41864 7949 ft 258 kts 178°
2026-05-08 14:57 3.99736 73.41904 7965 ft 257 kts 182°
2026-05-08 14:57 3.97991 73.41883 7743 ft 252 kts 183°
2026-05-08 14:58 3.96228 73.41860 7384 ft 253 kts 183°
2026-05-08 14:58 3.94465 73.41832 7040 ft 253 kts 183°
2026-05-08 14:58 3.92704 73.41809 6721 ft 252 kts 183°
2026-05-08 14:58 3.90971 73.41791 6405 ft 251 kts 183°
2026-05-08 14:59 3.89220 73.41778 6085 ft 250 kts 183°
2026-05-08 14:59 3.85768 73.41751 5396 ft 246 kts 183°
2026-05-08 14:59 3.84059 73.41744 5052 ft 245 kts 183°
2026-05-08 15:00 3.82360 73.41741 4712 ft 244 kts 183°
2026-05-08 15:00 3.80662 73.41750 4355 ft 244 kts 176°
2026-05-08 15:00 3.79064 73.42268 4039 ft 247 kts 153°
2026-05-08 15:00 3.77728 73.43350 3960 ft 250 kts 127°
2026-05-08 15:01 3.77005 73.44914 3960 ft 248 kts 98°
2026-05-08 15:01 3.76995 73.46330 3966 ft 244 kts 76°
2026-05-08 15:01 3.77340 73.47350 3972 ft 242 kts 58°
2026-05-08 15:01 3.78403 73.48622 3986 ft 236 kts 32°
2026-05-08 15:02 3.79809 73.49300 3987 ft 229 kts 11°
2026-05-08 15:02 3.81404 73.49610 3982 ft 227 kts
2026-05-08 15:02 3.82949 73.49881 3988 ft 227 kts
2026-05-08 15:02 3.84505 73.50184 3982 ft 226 kts
2026-05-08 15:03 3.86058 73.50503 3973 ft 229 kts
2026-05-08 15:03 3.87580 73.50826 3854 ft 222 kts
2026-05-08 15:03 3.89086 73.51152 3572 ft 221 kts
2026-05-08 15:03 3.90586 73.51478 3239 ft 220 kts
2026-05-08 15:04 3.92081 73.51805 2877 ft 220 kts
2026-05-08 15:04 3.93577 73.52134 2513 ft 219 kts
2026-05-08 15:04 3.95071 73.52462 2161 ft 220 kts
2026-05-08 15:04 3.96543 73.52738 1962 ft 207 kts
2026-05-08 15:05 3.97896 73.52832 1937 ft 188 kts
2026-05-08 15:05 3.99120 73.52952 1984 ft 172 kts
2026-05-08 15:05 4.00318 73.53080 1995 ft 172 kts
2026-05-08 15:05 4.01517 73.53145 1982 ft 173 kts 356°
2026-05-08 15:06 4.02724 73.53123 1976 ft 171 kts 355°
2026-05-08 15:06 4.03914 73.53115 1972 ft 170 kts 355°
2026-05-08 15:06 4.05087 73.53110 1967 ft 172 kts 356°
2026-05-08 15:06 4.06305 73.53115 1962 ft 175 kts 356°
2026-05-08 15:07 4.07520 73.53066 1961 ft 174 kts 353°
2026-05-08 15:07 4.08727 73.53078 1861 ft 171 kts 355°
2026-05-08 15:07 4.09915 73.53078 1660 ft 169 kts 356°
2026-05-08 15:07 4.11083 73.53078 1426 ft 163 kts 356°
2026-05-08 15:08 4.12147 73.53078 1220 ft 139 kts 354°
2026-05-08 15:08 4.12773 73.53076 1098 ft 132 kts 355°
2026-05-08 15:08 4.13988 73.53076 883 ft 128 kts 356°
2026-05-08 15:08 4.14897 73.53076 733 ft 133 kts 357°
2026-05-08 15:09 4.15816 73.53076 551 ft 133 kts 355°
2026-05-08 15:09 4.16752 73.53078 390 ft 136 kts 359°
2026-05-08 15:09 4.17686 73.53106 276 ft 132 kts 360°
2026-05-08 15:09 4.18597 73.53108 55 ft 132 kts 357°
2026-05-08 15:10 4.19478 73.53102 18 ft 115 kts
2026-05-08 15:10 4.20054 73.53101 18 ft 58 kts
2026-05-08 15:10 4.20381 73.53101 18 ft 38 kts 358°
2026-05-08 15:10 4.20647 73.53098 18 ft 39 kts 355°
2026-05-08 15:11 4.20855 73.53101 18 ft 18 kts
2026-05-08 15:11 4.20922 73.53081 18 ft 9 kts 315°
2026-05-08 15:11 4.20926 73.53012 18 ft 12 kts 271°
2026-05-08 15:11 4.20923 73.52935 18 ft 7 kts 234°
2026-05-08 15:12 4.20874 73.52908 20 ft 9 kts 197°
2026-05-08 15:12 4.20802 73.52890 18 ft 12 kts 189°
2026-05-08 15:12 4.20710 73.52891 18 ft 14 kts 179°
2026-05-08 15:12 4.20603 73.52893 18 ft 17 kts 179°
2026-05-08 15:13 4.20480 73.52894 18 ft 19 kts 180°
2026-05-08 15:13 4.20344 73.52894 18 ft 21 kts 179°
2026-05-08 15:13 4.20194 73.52897 18 ft 22 kts 179°
2026-05-08 15:13 4.20031 73.52901 18 ft 24 kts 179°
2026-05-08 15:14 4.19856 73.52905 18 ft 26 kts 179°
2026-05-08 15:14 4.19698 73.52908 18 ft 19 kts 179°
2026-05-08 15:14 4.19557 73.52911 18 ft 21 kts 179°
2026-05-08 15:14 4.19403 73.52911 18 ft 23 kts 180°
2026-05-08 15:15 4.19257 73.52910 18 ft 17 kts 180°
2026-05-08 15:15 4.19132 73.52909 18 ft 19 kts 180°
2026-05-08 15:15 4.18996 73.52918 18 ft 21 kts 175°
2026-05-08 15:15 4.18845 73.52921 18 ft 23 kts 181°
2026-05-08 15:16 4.18699 73.52922 18 ft 21 kts 179°
2026-05-08 15:16 4.18581 73.52923 20 ft 13 kts 180°
2026-05-08 15:16 4.18499 73.52921 18 ft 9 kts 203°
2026-05-08 15:16 4.18467 73.52864 18 ft 9 kts 239°
2026-05-08 15:17 4.18459 73.52821 18 ft 7 kts 276°
2026-05-08 15:17 4.18460 73.52784 18 ft 0 kts 269°